Mineral Point, WI

1:37 AM CST on February 21, 2018 (GMT -0600)
Iowa County

Weather History for KMRJ - January, 2013

Change the Weather History Date:

Tuesday, January 29, 2013

  Actual Average (KLNR) Record (KLNR)
Temperature  
Mean Temperature 44 °F -  
Max Temperature 55 °F 27 °F 50 °F (2013)
Min Temperature 33 °F 12 °F -17 °F (2014)
Degree Days  
Heating Degree Days 21    
Moisture  
Dew Point 41 °F    
Average Humidity 93    
Maximum Humidity 100    
Minimum Humidity 87    
Precipitation  
Precipitation 0.81 in - - ()
Sea Level Pressure  
Sea Level Pressure 29.55 in    
Wind  
Wind Speed 9 mph (North)    
Max Wind Speed 14 mph    
Max Gust Speed 17 mph    
Visibility 4 miles    
Events Fog , Rain , Snow    
Averages and records for this station are not official NWS values.
T = Trace of Precipitation, MM = Missing Value Source: NWS Daily Summary

Daily Weather History Graph

Daily Weather History Graph

Search for Another Location

Airport or City:

Trip Planner

Search our weather history database for the weather conditions in past years. The results will help you decide how hot, cold, wet, or windy it might be!

Date:

Astronomy

Jan. 29, 2013 Rise Set
Actual Time 7:18 AM CST 5:10 PM CST
Civil Twilight 6:48 AM CST 5:40 PM CST
Nautical Twilight 6:14 AM CST 6:14 PM CST
Astronomical Twilight 5:40 AM CST 6:48 PM CST
Moon 8:12 PM CST (1/29) 8:10 AM CST (1/29)
Length of Visible Light 10h 52m
Length of Day
9h 51m
Waning Gibbous, 93% of the Moon is Illuminated
Jan 29
Waning Gibbous
Feb 3
Last Quarter
Feb 10
New
Feb 17
First Quarter
Feb 25
Full

Hourly Weather History & Observations

Time (CST) Temp. Windchill Dew Point Humidity Pressure Visibility Wind Dir Wind Speed Gust Speed Precip Events Conditions
12:15 AM 41.0 °F 36.4 °F 37.4 °F 87% 29.71 in 7.0 mi East 6.9 mph - N/A Rain Light Rain
12:35 AM 41.0 °F 35.2 °F 39.2 °F 93% 29.69 in 1.2 mi ESE 9.2 mph - 0.22 in Rain Light Rain
12:55 AM 42.8 °F 39.3 °F 41.0 °F 93% 29.69 in 3.0 mi ESE 5.8 mph - 0.23 in Rain Light Rain
1:15 AM 44.6 °F 40.2 °F 42.8 °F 93% 29.69 in 3.0 mi SSE 8.1 mph - 0.02 in Rain Light Rain
1:35 AM 42.8 °F 37.5 °F 41.0 °F 93% 29.67 in 1.0 mi SE 9.2 mph - 0.02 in Rain Light Rain
1:55 AM 44.6 °F 38.4 °F 42.8 °F 93% 29.63 in 1.0 mi ESE 12.7 mph - 0.16 in Rain Light Rain
2:15 AM 44.6 °F 39.7 °F 42.8 °F 93% 29.64 in 5.0 mi SE 9.2 mph - 0.04 in Rain Heavy Rain
2:35 AM 44.6 °F 42.2 °F 42.8 °F 93% 29.65 in 7.0 mi East 4.6 mph - 0.05 in   Overcast
2:55 AM 44.6 °F 39.2 °F 42.8 °F 93% 29.62 in 7.0 mi ESE 10.4 mph - 0.05 in   Overcast
3:15 AM 42.8 °F 37.5 °F 41.0 °F 93% 29.62 in 7.0 mi ESE 9.2 mph - N/A   Overcast
3:35 AM 42.8 °F 37.5 °F 41.0 °F 93% 29.60 in 4.0 mi ESE 9.2 mph - 0.01 in Rain Light Rain
3:55 AM 42.8 °F 37.0 °F 41.0 °F 93% 29.59 in 3.0 mi ESE 10.4 mph - 0.01 in   Overcast
4:15 AM 42.8 °F 36.6 °F 41.0 °F 93% 29.56 in 1.5 mi ESE 11.5 mph - N/A   Overcast
4:35 AM 42.8 °F 36.6 °F 41.0 °F 93% 29.55 in 0.2 mi ESE 11.5 mph - N/A Fog Fog
4:55 AM 42.8 °F 36.2 °F 41.0 °F 93% 29.56 in 0.2 mi SE 12.7 mph - N/A Fog Fog
5:15 AM 44.6 °F 40.2 °F 42.8 °F 93% 29.60 in 1.2 mi South 8.1 mph - 0.10 in Rain Light Rain
5:35 AM 44.6 °F 39.7 °F 42.8 °F 93% 29.56 in 0.2 mi SE 9.2 mph - 0.16 in Rain Rain
5:55 AM 44.6 °F 38.8 °F 42.8 °F 93% 29.56 in 0.2 mi SSE 11.5 mph - 0.16 in Fog Fog
6:15 AM 44.6 °F 40.2 °F 42.8 °F 93% 29.55 in 0.2 mi SE 8.1 mph - 0.01 in Rain Light Rain
6:35 AM 44.6 °F 40.2 °F 42.8 °F 93% 29.55 in 0.2 mi SSE 8.1 mph - 0.05 in Rain Heavy Rain
6:55 AM 46.4 °F 42.9 °F 44.6 °F 93% 29.55 in 0.2 mi SSE 6.9 mph - 0.06 in Fog Fog
7:15 AM 46.4 °F 41.9 °F 44.6 °F 93% 29.54 in 0.2 mi SSE 9.2 mph - N/A Fog Fog
7:35 AM 46.4 °F 41.5 °F 44.6 °F 93% 29.54 in 0.2 mi SSE 10.4 mph - N/A Fog Fog
7:55 AM 46.4 °F 42.9 °F 44.6 °F 93% 29.54 in 0.2 mi SSE 6.9 mph - N/A Fog Fog
8:15 AM 46.4 °F 42.4 °F 44.6 °F 93% 29.54 in 0.2 mi SSE 8.1 mph - N/A Fog Fog
8:35 AM 48.2 °F - 46.4 °F 93% 29.53 in 0.2 mi SSE 8.1 mph - N/A Fog Fog
8:55 AM 50.0 °F - 46.4 °F 87% 29.53 in 0.2 mi South 8.1 mph - N/A Fog Fog
9:15 AM 51.8 °F - 48.2 °F 88% 29.51 in 0.2 mi South 6.9 mph - N/A Fog Fog
9:35 AM 51.8 °F - 50.0 °F 94% 29.53 in 2.0 mi South 8.1 mph - N/A   Overcast
9:55 AM 53.6 °F - 50.0 °F 88% 29.54 in 10.0 mi SSW 9.2 mph - N/A   Mostly Cloudy
10:15 AM 53.6 °F - 51.8 °F 94% 29.55 in 10.0 mi SSW 10.4 mph - N/A   Mostly Cloudy
10:35 AM 53.6 °F - 51.8 °F 94% 29.54 in 7.0 mi SSW 11.5 mph - N/A   Overcast
10:55 AM 53.6 °F - 51.8 °F 94% 29.55 in 10.0 mi SSW 9.2 mph - N/A   Overcast
11:15 AM 55.4 °F - 51.8 °F 88% 29.54 in 10.0 mi SW 11.5 mph - N/A   Overcast
11:35 AM 53.6 °F - 51.8 °F 94% 29.54 in 10.0 mi WSW 9.2 mph - N/A   Overcast
11:55 AM 51.8 °F - 50.0 °F 94% 29.55 in 0.2 mi West 11.5 mph - N/A Fog Fog
12:15 PM 50.0 °F - 46.4 °F 87% 29.55 in 0.2 mi WNW 11.5 mph 17.3 mph N/A Fog Fog
12:35 PM 46.4 °F 42.9 °F 44.6 °F 93% 29.55 in 0.2 mi West 6.9 mph - N/A Rain Rain
12:55 PM 46.4 °F 43.5 °F 44.6 °F 93% 29.54 in 3.0 mi WSW 5.8 mph - 0.01 in Rain Light Rain
1:15 PM 46.4 °F 41.9 °F 44.6 °F 93% 29.51 in 3.0 mi WNW 9.2 mph - 0.01 in Rain Light Rain
1:35 PM 44.6 °F 42.2 °F 42.8 °F 93% 29.54 in 2.5 mi WSW 4.6 mph - 0.03 in Rain Rain
1:55 PM 44.6 °F 43.1 °F 42.8 °F 93% 29.54 in 2.5 mi WSW 3.5 mph - 0.05 in Rain Rain
2:15 PM 44.6 °F 40.7 °F 42.8 °F 93% 29.53 in 3.0 mi WNW 6.9 mph - 0.01 in Rain Light Rain
2:35 PM 44.6 °F 40.2 °F 42.8 °F 93% 29.52 in 2.5 mi WNW 8.1 mph - 0.01 in Rain Light Rain
2:55 PM 42.8 °F 38.6 °F 41.0 °F 93% 29.52 in 3.0 mi NW 6.9 mph - 0.01 in   Overcast
3:15 PM 42.8 °F 39.3 °F 41.0 °F 93% 29.50 in 2.5 mi North 5.8 mph - N/A   Overcast
3:35 PM 42.8 °F 38.0 °F 41.0 °F 93% 29.51 in 1.2 mi NNW 8.1 mph - N/A Rain Light Rain
3:55 PM 41.0 °F 36.4 °F 39.2 °F 93% 29.52 in 3.0 mi NNW 6.9 mph - N/A Rain Light Rain
4:15 PM 41.0 °F 35.2 °F 39.2 °F 93% 29.50 in 5.0 mi North 9.2 mph - N/A Rain Light Rain
4:35 PM 41.0 °F 36.4 °F 37.4 °F 87% 29.50 in 4.0 mi North 6.9 mph - N/A Rain Light Rain
4:55 PM 41.0 °F 35.8 °F 37.4 °F 87% 29.50 in 3.0 mi NNW 8.1 mph - N/A Rain Rain
5:15 PM 39.2 °F 32.5 °F 37.4 °F 93% 29.50 in 4.0 mi NNW 10.4 mph - N/A Rain Light Rain
5:35 PM 39.2 °F 32.5 °F 37.4 °F 93% 29.50 in 5.0 mi NNW 10.4 mph - 0.01 in Rain Light Rain
5:55 PM 37.4 °F 30.3 °F 35.6 °F 93% 29.51 in 5.0 mi North 10.4 mph - 0.01 in Rain Light Rain
6:15 PM 37.4 °F 31.4 °F 35.6 °F 93% 29.50 in 5.0 mi North 8.1 mph - N/A Rain Light Rain
6:35 PM 37.4 °F 30.8 °F 35.6 °F 93% 29.51 in 5.0 mi NNW 9.2 mph - N/A Rain Rain
6:55 PM 37.4 °F 29.8 °F 35.6 °F 93% 29.52 in 4.0 mi NNW 11.5 mph - N/A Rain Light Rain
7:15 PM 35.6 °F 29.9 °F 35.6 °F 100% 29.50 in 4.0 mi North 6.9 mph - N/A   Overcast
7:35 PM 35.6 °F 28.6 °F 33.8 °F 93% 29.50 in 3.0 mi North 9.2 mph - N/A   Overcast
7:55 PM 35.6 °F 29.2 °F 33.8 °F 93% 29.51 in 4.0 mi North 8.1 mph - N/A Snow Light Snow
8:15 PM 35.6 °F 28.6 °F 33.8 °F 93% 29.50 in 4.0 mi North 9.2 mph - N/A Snow Light Snow
8:35 PM 35.6 °F 28.0 °F 33.8 °F 93% 29.50 in 4.0 mi North 10.4 mph - N/A Rain Light Rain
8:55 PM 35.6 °F 28.0 °F 33.8 °F 93% 29.49 in 4.0 mi North 10.4 mph 16.1 mph N/A Rain Rain
9:15 PM 35.6 °F 28.6 °F 33.8 °F 93% 29.52 in 5.0 mi NNW 9.2 mph - N/A Rain Light Rain
9:35 PM 35.6 °F 28.6 °F 33.8 °F 93% 29.51 in 5.0 mi North 9.2 mph - 0.01 in Rain Light Rain
9:55 PM 33.8 °F 26.4 °F 32.0 °F 93% 29.49 in 5.0 mi North 9.2 mph - 0.01 in   Overcast
10:15 PM 33.8 °F 25.3 °F 32.0 °F 93% 29.49 in 5.0 mi North 11.5 mph - 0.01 in   Overcast
10:35 PM 33.8 °F 25.8 °F 32.0 °F 93% 29.49 in 5.0 mi North 10.4 mph - 0.02 in   Overcast
10:55 PM 33.8 °F 26.4 °F 32.0 °F 93% 29.51 in 5.0 mi NNW 9.2 mph - 0.03 in   Overcast
11:15 PM 33.8 °F 24.3 °F 32.0 °F 93% 29.52 in 5.0 mi NNW 13.8 mph - N/A   Overcast
11:55 PM 33.8 °F 24.3 °F 32.0 °F 93% 29.47 in 7.0 mi North 13.8 mph 17.3 mph 0.02 in   Overcast